CAPE
0 0 0 0 0 0 0 0 0 0 0 0 0 0 0 0 0 0 0 0 0 0 0 0 0 0 0 0 0 0 0 0 0 0 0 0 0 0 0 0 0 0 0 0
0 0 0 0 0 0 0 0 0 0 0 0 0 0 0 0 0 0 0 0 0 0 0 0 0 0 0 0 0 0 0 0 0 0 0 0 0 0 0 0 0 0 0 0
0 0 0 0 0 0 0 0 0 0 0 0 0 0 0 0 0 0 0 0 0 0 0 0 0 0 0 0 0 0 0 0 0 0 0 0 0 0 0 0 0 0 0 0
0 0 0 0 0 0 0 0 0 0 0 0 0 0 0 0 0 0 0 0 0 0 0 0 0 0 0 0 0 0 0 0 0 0 0 0 0 0 0 0 0 0 0 0
0 0 0 0 0 0 0 0 0 0 0 0 0 0 0 0 0 0 0 0 0 0 0 0 0 0 0 0 0 0 0 0 0 0 0 0 0 0 0 0 0 0 0 0
0 0 0 0 0 0 0 0 0 0 0 0 0 0 0 0 0 0 0 0 0 0 0 0 0 0 0 0 0 0 0 0 0 0 0 0 0 0 0 0 0 0 0 0
0 0 0 0 0 0 0 0 0 0 0 0 0 0 0 0 0 0 0 0 0 0 0 0 0 0 0 0 0 0 0 0 0 0 0 0 0 0 0 0 0 0 0 0
0 0 0 0 0 0 0 0 0 0 0 0 0 0 0 0 0 0 0 0 0 0 0 0 0 0 0 0 0 0 0 0 0 0 0 0 0 0 0 0 0 0 0 0
1 0 1 1 0 0 0 0 0 0 0 0 0 0 0 0 0 0 0 0 0 0 0 0 0 0 0 0 0 0 0 0 0 0 0 0 0 0 0 0 0 0 0 0
0 1 0 0 0 0 0 0 0 0 0 0 0 0 0 0 0 0 0 0 0 0 0 0 0 0 0 0 0 0 0 0 0 0 0 0 0 0 0 0 0 0 0 0
0 1 1 1 0 0 0 0 0 0 0 0 0 0 0 0 0 0 0 0 0 0 0 0 0 0 0 0 0 0 0 0 0 0 0 0 0 0 0 0 0 0 0 0
1 1 1 1 1 0 0 0 0 0 1 0 0 0 0 0 0 0 0 0 0 0 0 0 0 0 0 0 0 0 0 0 5 0 0 0 0 0 0 0 0 0 0 0
1 0 1 2 1 0 0 0 1 0 0 0 0 0 0 0 0 0 0 0 0 0 0 0 0 0 0 0 0 0 4 4 20 15 7 0 0 0 0 0 0 0 4 0
2 1 1 1 1 0 0 0 0 0 1 0 0 0 0 0 0 0 0 0 0 0 0 0 4 4 0 1 0 0 0 0 0 0 0 0 0 0 0 0 0 0 0 0
2 1 2 1 1 0 0 0 0 1 0 0 0 0 0 0 0 0 0 0 0 0 0 0 4 5 4 8 8 5 1 0 7 8 1 0 0 0 0 0 0 0 0 0
2 2 1 1 1 0 0 0 0 0 2 0 0 0 0 0 0 0 0 0 0 0 0 0 0 0 11 14 8 1 2 0 0 3 0 0 0 0 0 0 0 0 0 0
2 3 2 1 1 0 0 0 0 0 1 0 0 0 0 0 0 0 0 0 0 0 0 1 4 8 19 14 11 2 18 13 3 13 32 19 11 2 0 0 0 0 0 0
0 0 0 1 1 1 0 0 0 0 2 0 0 0 0 0 0 0 0 0 0 2 12 9 14 15 19 17 8 12 2 2 3 6 9 15 13 0 0 0 0 0 0 0
0 1 1 0 0 0 0 0 0 1 0 1 1 0 0 0 0 0 0 0 2 1 18 19 20 10 14 20 18 1 1 1 8 4 13 27 29 10 0 0 0 0 0 2
1 0 0 3 2 0 0 2 2 3 3 0 1 0 0 0 0 0 0 0 2 3 6 8 11 2 14 21 8 0 0 10 13 12 4 20 18 18 11 2 2 2 0 0
0 1 4 0 0 0 0 11 2 0 1 0 0 0 0 0 0 0 0 2 6 4 13 13 16 15 22 12 6 6 1 21 14 21 20 29 27 7 7 5 7 10 5 1
1 1 0 0 0 0 9 5 0 1 0 0 0 0 0 0 0 2 2 4 5 2 8 20 5 10 0 2 0 0 1 18 7 24 22 24 12 11 29 12 7 5 15 8
1 0 1 4 4 0 6 0 0 0 0 0 0 0 0 0 1 7 5 2 1 12 7 3 11 0 0 1 0 0 6 9 12 13 21 13 12 21 18 14 7 4 20 12
0 0 0 1 0 0 0 0 0 0 0 0 0 2 0 1 0 0 1 6 13 17 0 2 2 0 0 1 0 0 2 4 5 6 3 15 26 12 2 28 18 16 14 21
0 0 0 0 0 0 0 0 0 0 0 0 0 0 0 0 0 0 0 1 2 0 0 0 2 0 0 0 0 1 1 2 2 12 15 22 5 3 7 36 14 12 30 32
0 0 0 0 0 0 0 0 0 0 0 0 0 0 6 4 2 0 0 0 0 2 11 0 0 0 0 0 0 0 0 5 12 20 4 12 5 2 22 34 75 87 112 128
0 0 0 0 0 0 0 0 0 0 0 0 0 3 5 0 0 0 0 1 7 9 2 0 0 0 0 0 0 0 0 1 3 9 1 6 28 2 1 19 28 5 0 2
CIN
0 0 0 0 0 0 0 0 0 0 0 0 0 0 0 0 0 0 0 0 0 0 0 0 0 0 0 0 0 0 0 0 0 0 0 0 0 0 0 0 0 0 0 0
0 0 0 0 0 0 0 0 0 0 0 0 0 0 0 0 0 0 0 0 0 0 0 0 0 0 0 0 0 0 0 0 0 0 0 0 0 0 0 0 0 0 0 0
0 0 0 0 0 0 0 0 0 0 0 0 0 0 0 0 0 0 0 0 0 0 0 0 0 0 0 0 0 0 0 0 0 0 0 0 0 0 0 0 0 0 0 0
0 0 0 0 0 0 0 0 0 0 0 0 0 0 0 0 0 0 0 0 0 0 0 0 0 0 0 0 0 0 0 0 0 0 0 0 0 0 0 0 0 0 0 0
0 0 0 0 0 0 0 0 0 0 0 0 0 0 0 0 0 0 0 0 0 0 0 0 0 0 0 0 0 0 0 0 0 0 0 0 0 0 0 0 0 0 0 0
0 0 0 0 0 0 0 0 0 0 0 0 0 0 0 0 0 0 0 0 0 0 0 0 0 0 0 0 0 0 0 0 0 0 0 0 0 0 0 0 0 0 0 0
0 0 0 0 0 0 0 0 0 0 0 0 0 0 0 0 0 0 0 0 0 0 0 0 0 0 0 0 0 0 0 0 0 0 0 0 0 0 0 0 0 0 0 0
0 0 0 0 0 0 0 0 0 0 0 0 0 0 0 0 0 0 0 0 0 0 0 0 0 0 0 0 0 0 0 0 0 0 0 0 0 0 0 0 0 0 0 0
0 0 0 0 0 0 0 0 0 0 0 0 0 0 0 0 0 0 0 0 0 0 0 0 0 0 0 0 0 0 0 0 0 0 0 0 0 0 0 0 0 0 0 0
0 0 0 0 0 0 0 0 0 0 0 0 0 0 0 0 0 0 0 0 0 0 0 0 0 0 0 0 0 0 0 0 0 0 0 0 0 0 0 0 0 0 0 0
0 0 0 0 0 0 0 0 0 0 0 0 0 0 0 0 0 0 0 0 0 0 0 0 0 0 0 0 0 0 0 0 0 0 0 0 0 0 0 0 0 0 0 0
0 0 0 0 0 0 0 0 0 0 0 0 0 0 0 0 0 0 0 0 0 0 0 0 0 0 0 0 0 0 0 0 -3 0 0 0 0 0 0 0 0 0 0 0
0 0 0 0 0 0 0 0 0 0 0 0 0 0 0 0 0 0 0 0 0 0 0 0 0 0 0 -1 -1 0 -22 -62 -26 -15 -14 0 0 0 0 0 0 0 -106 0
-1 0 -1 -1 0 0 0 0 0 0 0 0 0 0 0 0 0 0 0 0 0 0 0 0 -8 -2 0 -1 0 0 0 0 0 0 0 0 0 0 0 0 0 0 0 0
-2 -1 -1 -1 0 0 0 0 0 0 0 0 0 0 0 0 0 0 0 0 0 0 0 0 0 0 -3 -2 -5 -1 -1 0 -1 -1 -2 0 0 0 0 0 0 0 0 0
-3 -3 -2 0 0 0 0 0 0 0 -1 -2 0 0 0 0 0 0 0 0 0 0 0 0 0 0 -3 -1 0 -4 -2 0 -2 -2 0 0 0 0 0 0 0 0 0 0
-6 -4 -2 0 0 0 0 0 0 0 0 -1 0 0 0 0 0 0 0 0 0 0 0 0 -1 -1 -7 -1 0 -1 -2 -6 -29 -21 -13 -8 -6 -4 0 0 0 0 0 0
-4 -1 0 0 0 0 0 0 0 0 -12 -2 0 0 0 0 0 0 0 0 0 0 -1 -6 -4 -3 -7 0 -10 -23 -28 -42 -45 -43 -42 -38 -41 -53 0 0 0 0 0 0
0 0 0 0 0 0 0 0 0 -21 -2 -2 -1 0 0 0 0 0 0 0 -1 -3 -1 -1 -3 -1 0 -7 -16 -31 -37 -22 -32 -41 -35 -22 -12 -28 0 0 0 0 0 -37
0 0 0 -11 -7 0 0 -1 -12 -2 0 -2 0 0 0 0 0 0 0 0 -4 -1 -4 -16 -5 -4 -17 -22 -21 -68 -16 -32 -7 0 -6 -1 -2 -4 -9 -4 -1 -15 0 0
0 -6 -5 0 0 -1 0 -4 -8 -2 0 0 0 0 0 0 0 0 0 -4 -31 -5 -4 -4 -7 -2 -5 -19 -29 -22 -33 -11 -6 0 -3 -3 0 -1 -5 -17 -23 -9 -15 -10
0 0 0 0 0 0 -6 -5 -5 -1 0 0 0 0 0 0 0 -9 -5 -8 -16 -6 -15 -4 -1 -12 0 -29 0 0 -1 -2 -8 -2 0 -1 -2 -3 0 -1 0 0 -18 -34
0 0 -23 -20 -13 -1 -1 0 0 0 0 0 0 0 0 0 0 -13 -12 -7 -3 -27 -3 -12 -34 0 -6 -15 0 0 -23 -9 -4 0 -17 -8 -1 0 -6 0 0 -3 -8 -31
0 0 0 -7 -1 0 0 0 0 0 0 0 0 -37 0 0 0 0 -2 -6 -13 0 0 -15 -11 0 -8 -23 0 0 -17 -14 -10 -3 -4 -1 0 0 -1 -2 -2 -10 -7 -21
0 0 0 0 0 0 0 0 0 0 0 0 0 0 0 0 0 0 0 -3 -2 0 0 0 -28 0 0 0 0 -14 0 -10 0 -4 -2 0 0 0 -21 -1 -13 -20 -20 -31
0 0 0 0 0 0 0 0 0 0 0 0 0 0 -30 -16 -32 0 -1 -4 0 -20 -40 -10 0 0 0 0 0 0 -13 -11 -3 -1 -9 -6 0 0 -4 -7 -7 -5 -13 -31
0 0 0 0 0 0 0 0 0 0 0 0 -1 -6 -13 0 0 -1 0 -23 -14 -27 -33 0 0 0 0 0 0 0 0 -6 -6 -7 -6 -4 -3 0 -6 -3 -10 -58 -3 -11
Wind_Speed
35 36 36 36 35 32 18 15 16 18 13 13 14 14 14 18 18 17 16 15 16 16 16 16 16 16 15 19 14 14 14 17 21 22 18 19 18 21 22 28 28 28 32 36
36 36 37 37 35 29 18 15 16 17 15 16 15 15 15 16 17 18 19 18 18 18 18 18 17 16 17 20 17 16 14 21 26 24 19 19 22 21 22 25 28 33 37 38
36 36 37 37 35 28 17 16 16 17 15 15 14 15 17 17 18 17 18 18 18 19 21 22 21 21 21 21 20 20 17 21 25 31 28 22 26 25 24 25 32 37 36 45
36 36 37 37 35 27 16 18 16 16 16 17 16 18 18 18 19 19 19 19 20 22 23 23 23 22 23 21 23 21 22 29 28 29 29 30 31 30 31 31 35 39 43 43
34 35 36 36 35 25 18 17 16 16 16 18 18 20 20 20 21 22 22 21 22 21 22 22 23 24 22 25 23 23 24 30 29 34 32 32 37 37 37 36 37 38 42 49
32 33 34 34 34 25 18 18 16 16 19 19 19 20 19 20 21 20 18 22 23 24 20 24 25 25 26 24 26 27 27 28 32 41 34 39 45 37 39 39 35 36 41 38
31 31 32 32 31 26 19 19 17 17 18 17 18 18 20 21 21 22 22 24 22 22 27 26 23 24 25 25 25 24 27 28 31 39 37 48 40 32 32 35 33 32 33 34
30 30 30 29 28 26 21 21 18 17 18 16 17 19 20 21 21 20 22 22 21 25 23 24 26 27 28 27 25 25 23 25 32 36 37 42 37 29 30 33 37 28 29 30
29 28 28 28 27 26 20 22 20 18 17 17 18 19 20 22 22 21 20 21 23 21 22 23 27 29 25 25 22 21 19 22 26 29 36 41 30 23 27 30 46 28 30 32
28 27 26 26 25 25 21 21 22 19 18 17 17 19 21 20 21 23 22 24 21 21 22 24 27 28 25 28 27 24 22 23 27 31 36 35 29 29 26 38 37 30 30 32
27 26 25 25 25 25 22 20 22 20 19 18 16 18 20 19 20 23 22 22 21 22 23 24 25 27 26 29 27 27 26 28 29 27 33 39 24 23 30 32 32 33 33 32
27 26 24 24 24 24 23 20 21 22 17 18 18 18 19 18 17 19 20 20 21 20 22 23 24 26 25 26 30 22 28 25 28 25 25 20 23 26 30 31 32 32 32 33
26 26 24 24 24 24 22 21 22 21 20 20 18 18 18 15 11 13 20 19 19 20 20 22 23 27 24 29 28 26 23 21 26 29 26 31 35 35 37 31 34 33 32 34
27 26 25 24 24 24 23 22 21 20 19 19 17 19 23 19 14 11 12 18 18 19 21 22 23 25 21 26 27 27 27 27 30 33 35 41 41 34 36 42 41 39 35 36
27 26 24 23 24 25 23 19 17 18 20 21 23 23 16 18 14 14 13 14 19 20 21 21 23 22 24 25 26 29 27 30 32 39 37 38 39 39 40 43 42 41 44 45
26 25 23 22 23 24 19 17 18 16 18 20 21 19 16 17 17 16 16 15 17 18 19 22 21 21 23 26 27 23 23 25 30 38 35 39 43 42 39 39 43 43 42 41
25 24 23 23 22 19 17 17 16 17 17 20 20 19 16 17 17 17 17 15 18 18 21 22 24 25 23 28 34 37 35 33 32 32 34 35 34 32 36 38 39 40 40 41
24 24 23 22 20 17 16 16 8 14 18 17 18 18 18 18 18 19 19 18 18 17 20 22 23 21 20 24 24 24 27 31 33 33 33 31 38 42 42 39 37 39 39 38
26 24 19 16 15 15 16 16 13 14 16 17 16 18 18 19 18 19 20 19 21 18 17 17 20 20 20 22 23 30 33 32 37 38 37 38 38 41 42 40 39 40 40 37
19 15 15 16 16 13 14 16 16 14 14 14 15 15 17 18 20 21 22 19 20 22 20 20 19 20 20 18 22 31 34 36 37 40 38 37 38 41 43 43 42 43 42 39
16 16 15 15 15 15 14 15 14 14 14 12 13 12 17 17 19 22 20 23 21 23 21 22 21 23 22 25 29 35 37 38 37 39 33 28 30 37 44 44 43 42 40 39
17 16 16 15 14 13 14 13 13 12 13 13 14 14 13 15 16 18 19 20 18 20 22 22 23 23 31 31 35 37 37 38 39 38 39 32 34 37 37 38 40 42 42 40
15 15 13 13 12 12 12 12 12 13 13 12 13 15 15 17 16 18 18 17 16 21 18 19 19 23 28 31 34 35 35 38 37 33 29 38 38 38 29 31 20 29 34 32
13 13 13 11 11 10 10 10 12 14 14 14 12 15 14 16 18 16 15 15 17 16 15 17 27 27 30 31 32 32 33 34 30 21 19 16 25 40 38 33 16 9 12 25
13 12 12 9 9 10 11 11 12 13 16 16 15 14 12 13 15 14 14 15 14 13 14 22 19 31 32 31 30 30 28 30 27 26 20 21 23 21 20 5 11 7 21 26
13 11 11 11 12 9 9 8 6 13 16 18 15 15 17 15 14 15 13 14 13 14 15 25 23 31 31 31 29 26 17 25 28 28 33 11 10 9 5 19 16 14 17 22
12 11 8 5 6 4 6 11 11 12 14 17 15 16 14 16 16 15 13 13 13 16 22 28 27 27 31 30 29 26 22 19 23 21 14 15 24 13 21 28 24 21 20 20
Wind_Direction
326 327 327 324 322 317 325 321 313 316 328 312 307 301 302 302 302 306 307 306 301 298 300 297 295 295 304 307 312 305 301 301 294 296 309 308 307 300 298 293 293 291 284 252
329 329 329 327 326 327 323 320 319 320 316 303 302 303 305 308 302 304 301 299 301 299 296 294 297 297 304 304 304 303 302 294 292 296 305 305 296 300 298 297 295 285 281 261
332 332 331 330 329 327 333 319 312 313 319 312 306 302 301 302 309 308 306 301 303 297 291 294 292 291 298 301 303 304 299 293 289 285 292 302 295 296 298 296 290 287 284 276
335 335 334 333 333 329 334 321 319 314 309 307 306 301 301 298 298 306 308 302 301 296 291 291 290 294 295 299 302 300 296 288 290 290 291 291 290 291 292 290 289 286 286 285
335 336 337 338 336 335 349 323 318 319 312 308 305 303 300 298 299 299 297 298 301 302 294 294 292 294 296 294 300 300 301 291 293 289 291 290 287 286 287 288 289 289 289 282
335 337 339 342 344 346 348 340 337 324 312 308 304 303 304 303 304 306 307 303 300 297 299 300 299 298 295 296 297 296 296 295 293 287 294 291 284 287 287 287 288 288 286 290
335 338 340 343 347 353 354 344 334 324 314 318 313 311 309 306 307 300 301 305 302 305 304 303 303 299 297 295 293 294 294 294 293 290 293 284 293 294 292 289 290 290 289 292
335 336 340 342 344 346 353 346 337 328 320 322 321 316 315 313 310 307 304 305 307 308 307 302 299 297 296 292 290 290 289 293 293 288 287 290 292 296 293 292 291 294 296 296
336 337 338 340 339 340 348 348 344 335 326 321 324 320 319 314 313 313 311 313 311 311 304 301 295 293 299 300 305 307 293 289 287 292 289 290 303 304 304 299 286 295 293 294
336 335 334 335 334 334 341 342 342 340 331 329 328 324 319 320 317 311 312 312 311 315 303 296 295 293 298 295 295 295 295 294 286 289 289 293 301 304 307 289 291 302 300 297
333 329 326 328 329 329 336 342 339 342 336 331 330 328 320 322 320 313 318 315 319 313 305 303 301 299 299 298 299 297 291 292 291 293 289 289 313 307 296 301 304 301 299 298
325 323 318 319 324 328 334 340 340 337 345 337 332 328 325 326 331 327 325 320 321 323 315 312 310 303 306 303 298 304 295 293 295 292 297 309 313 309 310 310 304 302 301 300
312 316 315 317 326 329 331 337 335 340 340 333 331 334 343 347 340 340 326 329 327 324 326 319 313 305 308 301 301 302 304 306 297 296 297 296 298 300 301 304 304 305 303 302
314 315 318 318 319 322 335 331 338 342 344 341 343 338 330 336 340 335 330 332 338 332 326 319 313 310 315 307 305 302 301 302 298 294 296 294 294 300 300 295 295 296 299 299
315 314 319 322 320 323 335 349 353 356 347 335 331 334 350 346 355 349 345 335 328 327 323 318 314 317 313 310 308 303 301 296 294 294 299 298 298 298 298 294 292 290 289 288
315 317 323 325 325 329 347 351 353 3 360 346 337 347 347 346 348 345 343 340 335 330 326 321 320 317 313 309 307 316 317 311 306 299 300 296 295 297 297 294 290 288 289 289
315 316 323 325 332 346 350 349 1 4 4 352 344 346 358 355 355 354 349 350 339 333 327 319 315 312 313 305 298 300 304 307 309 307 303 301 303 303 299 297 295 292 291 289
313 315 321 325 338 352 359 7 38 14 4 8 355 354 357 8 1 355 357 351 348 342 330 327 323 325 321 312 317 321 318 313 309 310 308 308 302 298 292 295 297 293 290 292
303 308 332 350 359 1 1 10 29 19 12 5 8 2 359 8 7 2 360 357 344 354 347 343 335 330 321 321 323 319 315 316 308 307 309 307 305 300 292 292 290 284 284 287
330 350 349 345 357 21 25 13 12 22 26 27 19 18 8 9 5 0 358 7 358 347 347 344 333 329 328 332 330 321 320 315 313 308 309 310 310 303 290 286 284 279 277 280
339 338 338 346 349 1 8 8 13 23 17 30 25 25 9 14 6 357 1 356 358 346 347 342 335 324 325 328 323 317 315 310 310 307 316 322 321 313 291 282 280 280 277 277
326 321 329 344 358 7 6 14 23 26 23 26 22 25 32 23 16 9 7 2 5 351 349 338 331 330 308 312 315 314 308 308 305 310 300 324 277 275 267 260 263 263 264 270
316 333 355 5 12 5 12 17 23 23 28 35 33 16 19 15 19 9 10 11 6 357 360 343 342 340 318 312 309 306 307 319 319 294 281 304 287 283 264 253 290 239 277 277
343 356 353 9 16 22 36 39 24 18 19 11 23 14 14 8 3 11 19 19 15 19 16 355 324 292 304 308 305 303 307 308 289 275 276 293 285 305 303 312 312 297 295 279
347 1 5 28 34 32 24 18 10 7 2 1 11 21 20 15 8 18 25 28 28 29 17 345 4 320 308 304 300 301 297 305 301 302 294 300 304 299 294 34 52 50 267 255
344 357 11 18 17 31 21 23 34 11 1 358 7 11 6 7 17 7 13 20 15 17 8 344 351 312 313 311 300 296 287 309 311 318 334 301 307 304 135 20 345 318 288 271
356 17 40 59 46 73 33 8 9 16 6 353 0 358 7 10 3 5 12 8 9 4 348 334 336 343 309 310 305 299 294 302 319 311 305 317 335 337 5 28 16 5 354 347